Location: Recife
(8.0585°S, 34.8848°W)
Time: 09:54:40
(UTC-03:00)

Courier 1B Rocket - Pass Details

Date: 18 April 2026
Orbit: 920 x 1201 km, 28.2° (Epoch: 13 May)

Event Time Altitude Azimuth Distance (km) Brightness Sun altitude
Rises 13:05:24 0° 242° (WSW) 4,016 8.4 57.4°
Reaches altitude 10° 13:08:11 10° 243° (WSW) 3,081 8.0 56.8°
Maximum altitude 13:15:56 85° 330° (NNW) 1,202 6.8 55.2°
Drops below altitude 10° 13:23:47 10° 58° (ENE) 3,117 7.6 53.5°
Sets 13:26:36 0° 59° (ENE) 4,065 8.1 52.9°
